TimeCST,TemperatureF,Dew PointF,Humidity,Sea Level PressureIn,VisibilityMPH,Wind Direction,Wind SpeedMPH,Gust SpeedMPH,PrecipitationIn,Events,Conditions,WindDirDegrees,DateUTC
12:04 AM,46.4,41.0,81,30.18,10.0,SW,11.5,-,0.00,Rain,Light Rain,220,2013-01-09 06:04:00
12:10 AM,46.4,42.8,87,30.18,10.0,SW,12.7,-,0.00,Rain,Light Rain,220,2013-01-09 06:10:00
12:21 AM,46.4,42.8,87,30.19,10.0,SW,9.2,-,0.00,,Overcast,230,2013-01-09 06:21:00
12:53 AM,46.0,43.0,89,30.21,10.0,WSW,9.2,-,0.00,,Overcast,240,2013-01-09 06:53:00
1:09 AM,46.4,42.8,87,30.21,10.0,WSW,9.2,-,N/A,,Overcast,240,2013-01-09 07:09:00
1:53 AM,45.0,44.1,97,30.22,9.0,SSW,8.1,-,0.00,Rain,Light Rain,210,2013-01-09 07:53:00
2:53 AM,45.0,44.1,97,30.24,8.0,SW,8.1,-,0.00,,Overcast,220,2013-01-09 08:53:00
3:53 AM,44.1,43.0,96,30.25,7.0,SW,6.9,-,N/A,,Mostly Cloudy,230,2013-01-09 09:53:00
4:30 AM,42.8,42.8,100,30.25,1.5,WSW,5.8,-,N/A,,Partly Cloudy,240,2013-01-09 10:30:00
4:33 AM,41.0,41.0,100,30.25,0.8,SW,5.8,-,N/A,,Partly Cloudy,230,2013-01-09 10:33:00
4:35 AM,39.2,39.2,100,30.25,0.5,WSW,5.8,-,N/A,Fog,Fog,240,2013-01-09 10:35:00
4:44 AM,37.4,37.4,100,30.25,0.2,WSW,4.6,-,N/A,Fog,Fog,240,2013-01-09 10:44:00
4:53 AM,37.9,37.9,100,30.27,0.2,SW,3.5,-,N/A,Fog,Fog,230,2013-01-09 10:53:00
5:10 AM,37.4,37.4,100,30.26,0.2,West,5.8,-,N/A,Fog,Fog,260,2013-01-09 11:10:00
5:18 AM,39.2,39.2,100,30.26,0.2,West,5.8,-,N/A,Fog,Fog,270,2013-01-09 11:18:00
5:25 AM,39.2,39.2,100,30.26,0.5,WNW,6.9,-,N/A,Fog,Fog,290,2013-01-09 11:25:00
5:30 AM,42.8,41.0,93,30.26,1.0,WNW,8.1,-,N/A,,Mist,290,2013-01-09 11:30:00
5:32 AM,42.8,41.0,93,30.26,2.0,WNW,6.9,-,N/A,,Scattered Clouds,290,2013-01-09 11:32:00
5:40 AM,42.8,42.8,100,30.26,6.0,WNW,6.9,-,N/A,,Scattered Clouds,290,2013-01-09 11:40:00
5:53 AM,42.1,42.1,100,30.28,5.0,WNW,6.9,-,N/A,,Partly Cloudy,300,2013-01-09 11:53:00
6:26 AM,42.8,42.8,100,30.29,1.5,Calm,Calm,-,N/A,,Clear,0,2013-01-09 12:26:00
6:29 AM,41.0,41.0,100,30.30,0.8,Calm,Calm,-,N/A,,Mist,0,2013-01-09 12:29:00
6:31 AM,41.0,39.2,93,30.30,0.5,Calm,Calm,-,N/A,Fog,Fog,0,2013-01-09 12:31:00
6:53 AM,42.1,42.1,100,30.33,0.5,WNW,3.5,-,N/A,Fog,Fog,300,2013-01-09 12:53:00
7:16 AM,39.2,39.2,100,30.32,1.0,NW,5.8,-,N/A,,Mist,310,2013-01-09 13:16:00
7:19 AM,39.2,39.2,100,30.32,3.0,NW,6.9,-,N/A,,Mostly Cloudy,310,2013-01-09 13:19:00
7:28 AM,39.2,39.2,100,30.32,4.0,NW,5.8,-,N/A,,Scattered Clouds,310,2013-01-09 13:28:00
7:53 AM,39.9,39.0,97,30.35,5.0,NW,4.6,-,N/A,,Clear,320,2013-01-09 13:53:00
8:53 AM,43.0,41.0,93,30.38,7.0,NNW,3.5,-,N/A,,Clear,330,2013-01-09 14:53:00
9:53 AM,45.0,41.0,86,30.39,10.0,Calm,Calm,-,N/A,,Clear,0,2013-01-09 15:53:00
10:53 AM,48.9,39.9,71,30.40,10.0,Calm,Calm,-,N/A,,Clear,0,2013-01-09 16:53:00
11:53 AM,53.1,39.0,59,30.37,10.0,NNE,5.8,-,N/A,,Clear,30,2013-01-09 17:53:00
12:53 PM,54.0,35.1,49,30.37,10.0,Variable,3.5,-,N/A,,Clear,0,2013-01-09 18:53:00
1:53 PM,55.0,34.0,45,30.37,10.0,NNE,4.6,-,N/A,,Clear,30,2013-01-09 19:53:00
2:53 PM,55.0,30.9,40,30.38,10.0,North,5.8,-,N/A,,Clear,10,2013-01-09 20:53:00
3:53 PM,53.1,34.0,48,30.38,10.0,ENE,8.1,-,N/A,,Clear,60,2013-01-09 21:53:00
4:53 PM,48.9,32.0,52,30.40,10.0,ENE,5.8,-,N/A,,Clear,60,2013-01-09 22:53:00
5:53 PM,45.0,30.9,58,30.41,10.0,NNE,4.6,-,N/A,,Clear,30,2013-01-09 23:53:00
6:53 PM,43.0,30.9,62,30.41,10.0,NE,5.8,-,N/A,,Clear,50,2013-01-10 00:53:00
7:53 PM,44.1,30.0,58,30.41,10.0,ENE,9.2,-,N/A,,Clear,60,2013-01-10 01:53:00
8:53 PM,45.0,28.9,53,30.42,10.0,ENE,10.4,-,N/A,,Clear,70,2013-01-10 02:53:00
9:53 PM,44.1,28.9,55,30.40,10.0,East,11.5,-,N/A,,Clear,80,2013-01-10 03:53:00
10:53 PM,43.0,28.9,58,30.39,10.0,East,10.4,-,N/A,,Clear,80,2013-01-10 04:53:00
11:53 PM,43.0,30.0,60,30.38,10.0,East,11.5,-,N/A,,Clear,80,2013-01-10 05:53:00